Weather History for Eureka, NU

Change the Weather History Date:

Friday, July 26, 2013

  Actual Average Record
Temperature  
Mean Temperature 38 °F -  
Max Temperature 40 °F 43 °F 57 °F (2000)
Min Temperature 35 °F 33 °F 35 °F (1996)
Degree Days  
Heating Degree Days 28    
Moisture  
Dew Point 26 °F    
Average Humidity 62    
Maximum Humidity 81    
Minimum Humidity 29    
Precipitation  
Precipitation 0.00 in 0.02 in - ()
Sea Level Pressure  
Sea Level Pressure 29.49 in    
Wind  
Wind Speed 16 mph ()    
Max Wind Speed 26 mph    
Max Gust Speed 32 mph    
Visibility 13.9 miles    
Events Rain    
Averages and records for this station are not official NWS values.
T = Trace of Precipitation, MM = Missing Value Source: Averaged Metar Reports

Daily Weather History Graph

Daily Weather History Graph

Search for Another Location

Airport:

Trip Planner

Search our weather history database for the weather conditions in past years. The results will help you decide how hot, cold, wet, or windy it might be!

Date:

Astronomy

Dec. 31, 1969 Rise Set
Actual Time Sun does not rise Sun does not rise
Civil Twilight Sun does not rise Sun does not rise
Nautical Twilight Sun does not rise Sun does not rise
Astronomical Twilight Sun does not rise Sun does not rise
Moon 8:58 PM CDT (7/26) 10:50 AM CDT (7/26)
Length of Visible Light 24h 00m
Length of Day
24h 00m
Waning Gibbous, 80% of the Moon is Illuminated
Jul 26
Waning Gibbous
Jul 29
Last Quarter
Aug 6
New
Aug 14
First Quarter
Aug 20
Full

Hourly Weather History & Observations

Time (CDT) Temp. Windchill Dew Point Humidity Pressure Visibility Wind Dir Wind Speed Gust Speed Precip Events Conditions
1:00 AM 38 °F - 32 °F 72% 29.47 in 5 mi South 26.5 mph - - Rain Light Rain
1:00 AM 37.4 °F 25.6 °F 32.0 °F 81% 29.47 in 5.0 mi South 26.5 mph 32.2 mph N/A Rain Light Rain
2:00 AM 37.4 °F 29.3 °F 32.0 °F 81% 29.47 in 6.0 mi South 12.7 mph - N/A Rain Light Rain
3:00 AM 37.4 °F 26.6 °F 30.2 °F 75% 29.45 in 15.0 mi South 21.9 mph - N/A Rain Light Rain
3:11 AM - - - N/A% - 15.0 mi South 26.5 mph - N/A   Overcast
4:00 AM 35.6 °F 24.0 °F 30.2 °F 81% 29.46 in 15.0 mi South 23.0 mph - N/A   Mostly Cloudy
5:00 AM 37.4 °F 26.4 °F 30.2 °F 75% 29.46 in 15.0 mi South 23.0 mph 32.2 mph N/A   Mostly Cloudy
6:00 AM 35.6 °F 24.0 °F 30.2 °F 81% 29.47 in 15.0 mi South 23.0 mph - N/A   Mostly Cloudy
7:00 AM 38 °F - 30 °F 62% 29.48 in 15 mi SSE 9.2 mph - -   Partly Cloudy
7:00 AM 39.2 °F 32.5 °F 30.2 °F 70% 29.48 in 15.0 mi SE 10.4 mph - N/A   Overcast
8:00 AM 39.2 °F 31.6 °F 26.6 °F 61% 29.49 in 15.0 mi South 12.7 mph - N/A   Mostly Cloudy
9:00 AM 37.4 °F 32.8 °F 24.8 °F 60% 29.49 in 15.0 mi West 5.8 mph - N/A   Mostly Cloudy
10:00 AM 39.2 °F 33.6 °F 21.2 °F 49% 29.49 in 15.0 mi SSW 8.1 mph - N/A   Mostly Cloudy
11:00 AM 39.2 °F 33.0 °F 23.0 °F 52% 29.49 in 15.0 mi SSW 9.2 mph - N/A   Mostly Cloudy
12:00 PM 39.2 °F 29.6 °F 23.0 °F 52% 29.49 in 15.0 mi South 19.6 mph - N/A   Mostly Cloudy
1:00 PM 40 °F - 19 °F 29% 29.49 in 15 mi SSW 8.1 mph - -   Mostly Cloudy
1:00 PM 41.0 °F 35.8 °F 19.4 °F 42% 29.49 in 15.0 mi SW 8.1 mph - N/A   Mostly Cloudy
2:00 PM 39.2 °F 32.0 °F 23.0 °F 52% 29.49 in 15.0 mi SSW 11.5 mph - N/A   Mostly Cloudy
3:00 PM 37.4 °F 28.5 °F 23.0 °F 56% 29.50 in 15.0 mi SSW 15.0 mph - N/A   Mostly Cloudy
4:00 PM 39.2 °F 31.2 °F 21.2 °F 49% 29.50 in 15.0 mi SW 13.8 mph - N/A   Mostly Cloudy
5:00 PM 37.4 °F 27.5 °F 23.0 °F 56% 29.50 in 15.0 mi SSW 18.4 mph - N/A   Mostly Cloudy
6:00 PM 37.4 °F 27.2 °F 26.6 °F 65% 29.50 in 15.0 mi South 19.6 mph - N/A   Mostly Cloudy
7:00 PM 36 °F - 26 °F 57% 29.51 in 15 mi South 16.1 mph - -   Mostly Cloudy
7:00 PM 35.6 °F 26.2 °F 26.6 °F 70% 29.51 in 15.0 mi South 15.0 mph - N/A   Mostly Cloudy
8:00 PM 37.4 °F 28.2 °F 26.6 °F 65% 29.52 in 15.0 mi South 16.1 mph - N/A   Mostly Cloudy
9:00 PM 37.4 °F 27.8 °F 24.8 °F 60% 29.52 in 15.0 mi South 17.3 mph - N/A   Mostly Cloudy
10:00 PM 35.6 °F 26.2 °F 26.6 °F 70% 29.53 in 15.0 mi South 15.0 mph - N/A   Mostly Cloudy